{"data":{"norad_id":41634,"intl_designator":"2016-043A","name":"SJ 16-02","alt_names":[],"object_type":"PAYLOAD","status":"ACTIVE","operator":null,"country":"PRC","launch_date":"2016-06-29","launch_site_code":"JSC","launch_vehicle":null,"mission":null,"orbit_class":"UNKNOWN","rcs_meters":9.772,"size_class":null,"mass_kg":null,"dimensions":null,"purposes":[],"wikipedia_slug":null,"has_3d_model":false,"image_url":null,"decayed_at":null,"tle_current":{"epoch":"2026-05-25T02:25:08.090112Z","epoch_age_seconds":63432,"freshness":"FRESH","line1":"1 41634U 16043A   26145.10078808  .00000731  00000+0  72169-4 0  9991","line2":"2 41634  75.0032 322.6763 0006922  91.5210 268.6772 14.93506918537697","mean_motion":14.93506918,"eccentricity":0.0006922,"inclination_deg":75.0032,"raan_deg":322.6763,"arg_perigee_deg":91.521,"mean_anomaly_deg":268.6772,"bstar":7.2169e-5,"rev_number":53769,"period_min":96.417363900018,"perigee_km":582.18972263664,"apogee_km":591.83227352519,"semimajor_km":6965.1479980809,"source":"CELESTRAK","updated_at":"2026-05-25T13:37:55.621830Z"}}}